Tracking 25195 objects as of 20-Jan-2022
HD Live streaming from Space Station
objects crossing your sky now

CHINASAT 20

Track CHINASAT 20 now!
CHINASAT 20 is classified as:


NORAD ID: 28082
Int'l Code: 2003-052A
Perigee: 36,107.8 km
Apogee: 36,137.2 km
Inclination: 6.9 °
Period: 1,452.9 minutes
Semi major axis: 42493 km
RCS: 12.5893 m2 (large)
Launch date: November 14, 2003
Source: People's Republic of China (PRC)
Launch site: Xichang Space Center, China (XSC)

Dedicated military communications satellite.
aabbcc
Your satellite tracking list
Your tracking list is empty




NASA's NSSDC Master Catalog

Two Line Element Set (TLE):
1 28082U 03052A   22019.08359400 -.00000145  00000-0  00000-0 0  9994
2 28082   6.9237  62.7907 0003459  33.7321 345.3728  0.99110411 66437
Source of the keplerian elements: AFSPC